Location: Newark
(34.1333°N, 7.9667°W)
Time: 13:09:32
(UTC+00:00)

SR - Visible Passes

Search period start: 22 June 2021 00:00
Search period end: 02 July 2021 00:00
Orbit: 575 x 880 km, 66.7° (Epoch: 21 June)

Date Brightness Start Highest point End Pass type
(mag) Time Alt. Az. Time Alt. Az. Time Alt. Az.
22 Jun ? 00:24:38 10° NNE 00:27:35 15° NE 00:28:49 14° ENE visible
22 Jun ? 02:05:12 10° NNW 02:08:09 33° NW 02:08:09 33° NW visible
23 Jun ? 01:15:23 10° NNW 01:19:00 42° N 01:19:00 42° N visible
24 Jun ? 00:26:02 10° N 00:29:56 27° NE 00:29:56 27° NE visible
24 Jun ? 02:08:10 10° NW 02:09:17 15° WNW 02:09:17 15° WNW visible
24 Jun ? 23:37:29 10° NNE 23:40:08 14° NE 23:40:56 14° ENE visible
25 Jun ? 01:17:48 10° NNW 01:20:17 28° NW 01:20:17 28° NW visible
26 Jun ? 00:28:02 10° NNW 00:31:21 37° N 00:31:21 37° N visible
26 Jun ? 23:38:46 10° N 23:42:28 25° NE 23:42:28 25° NE visible
27 Jun ? 01:20:42 10° NW 01:21:50 16° NW 01:21:50 16° NW visible
27 Jun ? 22:50:21 10° NNE 22:52:40 13° NE 22:53:38 12° ENE visible
28 Jun ? 00:30:25 10° NNW 00:33:00 30° NW 00:33:00 30° NW visible
28 Jun ? 23:40:41 10° NNW 23:44:12 38° NNE 23:44:12 38° NNE visible
29 Jun ? 22:51:28 10° N 22:55:27 24° NE 22:55:27 24° NE visible
30 Jun ? 00:33:14 10° NW 00:34:50 18° WNW 00:34:50 18° WNW visible
30 Jun ? 22:03:19 10° NNE 22:05:12 12° NE 22:06:44 11° ENE visible
30 Jun ? 23:43:01 10° NNW 23:46:07 37° NW 23:46:07 37° NW visible
01 Jul ? 22:53:21 10° NNW 22:57:27 42° NNE 22:57:27 42° NNE visible
